Date String (YYYY-MM-DD hh:mm:ss) UTC,Instrument flags,Ambient pressure (hPa),Sample flow (lpm),Bypass flow (lpm),Sample temperature (°C),Ambient temperature (°C),ASC tube jacket temperature (°C),LED temperature (°C),Box temperature (°C),Sample RH (%),Span deviation,Mass concentration (μg/m³),Mass concentration (μg/m³),Mass concentration (μg/m³)
DateTimeUTC,F1_M11,P_M11,Q1_M11,Q2_M11,T1_M11,T2_M11,T3_M11,T4_M11,T5_M11,U1_M11,ZSPAN_M11,X2_M11,X0_M11,X1_M11
2023-01-19 16:00:00,,0821.1,4.99,0.00,23.0,21.7,00.0,31.7,24.8,07.5,0000.0,0003.43,0004.96,0003.27
2023-01-19 16:01:00,,0821.1,4.99,0.00,23.0,21.7,00.0,31.7,24.8,07.5,0000.0,0003.39,0004.83,0003.23
2023-01-19 16:02:00,,0821.2,5.00,0.00,23.0,21.7,00.0,31.7,24.8,07.5,0000.0,0003.34,0004.67,0003.19
2023-01-19 16:03:00,,0821.2,4.99,0.00,23.0,21.6,00.0,31.7,24.8,07.4,0000.0,0003.34,0004.60,0003.19
2023-01-19 16:04:00,,0821.2,5.00,0.00,23.0,21.6,00.0,31.7,24.8,07.4,0000.0,0003.34,0004.43,0003.20
2023-01-19 16:05:00,,0821.2,5.01,0.00,23.0,21.5,00.0,31.7,24.7,07.4,0000.0,0003.36,0004.31,0003.23
2023-01-19 16:06:00,,0821.2,5.01,0.00,22.9,21.5,00.0,31.7,24.7,07.4,0000.0,0003.38,0004.36,0003.25
2023-01-19 16:07:00,,0821.2,5.00,0.00,22.9,21.5,00.0,31.7,24.7,07.4,0000.0,0003.41,0004.39,0003.27
2023-01-19 16:08:00,,0821.1,5.00,0.00,22.9,21.5,00.0,31.7,24.7,07.4,0000.0,0003.42,0004.41,0003.27
2023-01-19 16:09:00,,0821.2,4.99,0.00,22.9,21.5,00.0,31.7,24.7,07.4,0000.0,0003.42,0004.47,0003.27
2023-01-19 16:10:00,,0821.2,5.00,0.00,22.9,21.5,00.0,31.7,24.7,07.4,0000.0,0003.41,0004.46,0003.26
2023-01-19 16:11:00,,0821.2,5.01,0.00,22.9,21.5,00.0,31.7,24.7,07.4,0000.0,0003.40,0004.38,0003.27
2023-01-19 16:12:00,,0821.2,4.99,0.00,22.9,21.5,00.0,31.7,24.7,07.4,0000.0,0003.41,0004.41,0003.28
2023-01-19 16:13:00,,0821.3,5.00,0.00,22.9,21.5,00.0,31.7,24.7,07.4,0000.0,0003.41,0004.47,0003.28
2023-01-19 16:14:00,,0821.3,5.01,0.00,22.9,21.5,00.0,31.7,24.7,07.4,0000.0,0003.42,0004.73,0003.25
2023-01-19 16:15:00,,0821.3,5.00,0.00,22.9,21.6,00.0,31.7,24.7,07.4,0000.0,0003.41,0006.11,0003.24
2023-01-19 16:16:00,,0821.3,5.00,0.00,22.9,21.6,00.0,31.7,24.7,07.4,0000.0,0003.36,0006.04,0003.20
2023-01-19 16:17:00,,0821.4,4.99,0.00,22.9,21.5,00.0,31.7,24.7,07.5,0000.0,0003.31,0005.97,0003.15
2023-01-19 16:18:00,,0821.4,4.99,0.00,22.9,21.6,00.0,31.7,24.7,07.5,0000.0,0003.27,0005.88,0003.12
2023-01-19 16:19:00,,0821.3,4.99,0.00,22.9,21.6,00.0,31.7,24.7,07.5,0000.0,0003.26,0005.89,0003.09
2023-01-19 16:20:00,,0821.4,5.00,0.00,22.9,21.6,00.0,31.6,24.6,07.5,0000.0,0003.23,0005.76,0003.06
2023-01-19 16:21:00,,0821.3,5.00,0.00,22.9,21.5,00.0,31.6,24.6,07.4,0000.0,0003.22,0005.76,0003.02
2023-01-19 16:22:00,,0821.3,5.00,0.00,22.9,21.5,00.0,31.6,24.6,07.5,0000.0,0003.21,0005.86,0002.98
2023-01-19 16:23:00,,0821.3,5.00,0.00,22.9,21.5,00.0,31.6,24.7,07.5,0000.0,0003.20,0005.91,0002.93
2023-01-19 16:24:00,,0821.3,5.00,0.00,22.9,21.5,00.0,31.6,24.7,07.5,0000.0,0003.18,0005.83,0002.88
2023-01-19 16:25:00,,0821.4,5.04,0.00,22.9,21.6,00.0,31.7,24.7,07.5,0000.0,0003.15,0005.70,0002.85
2023-01-19 16:26:00,,0821.4,5.04,0.00,22.9,21.6,00.0,31.7,24.7,07.5,0000.0,0003.14,0005.55,0002.84
2023-01-19 16:27:00,,0821.4,4.99,0.00,22.9,21.6,00.0,31.7,24.7,07.5,0000.0,0003.11,0004.08,0002.80
2023-01-19 16:28:00,,0821.4,5.00,0.00,22.9,21.6,00.0,31.7,24.7,07.4,0000.0,0003.09,0003.95,0002.78
2023-01-19 16:29:00,,0821.4,4.99,0.00,22.9,21.6,00.0,31.7,24.7,07.4,0000.0,0003.08,0003.93,0002.77
2023-01-19 16:30:00,,0821.3,5.01,0.00,22.9,21.6,00.0,31.7,24.7,07.4,0000.0,0003.04,0003.88,0002.75
2023-01-19 16:31:00,,0821.4,4.99,0.00,22.9,21.6,00.0,31.7,24.7,07.4,0000.0,0003.00,0003.83,0002.73
2023-01-19 16:32:00,,0821.4,4.99,0.00,22.9,21.6,00.0,31.7,24.7,07.3,0000.0,0003.00,0003.85,0002.71
2023-01-19 16:33:00,,0821.3,5.03,0.00,22.9,21.6,00.0,31.7,24.7,07.2,0000.0,0002.98,0004.03,0002.70
2023-01-19 16:34:00,,0821.3,4.99,0.00,22.9,21.6,00.0,31.7,24.7,07.3,0000.0,0002.99,0004.24,0002.70
2023-01-19 16:35:00,,0821.4,5.00,0.00,22.9,21.6,00.0,31.7,24.7,07.3,0000.0,0002.96,0004.13,0002.70
2023-01-19 16:36:00,,0821.4,4.99,0.00,23.0,21.6,00.0,31.7,24.7,07.3,0000.0,0002.93,0004.05,0002.71
2023-01-19 16:37:00,,0821.4,5.00,0.00,23.0,21.7,00.0,31.7,24.8,07.2,0000.0,0002.92,0004.12,0002.72
2023-01-19 16:38:00,,0821.4,5.00,0.00,23.0,21.7,00.0,31.7,24.8,07.1,0000.0,0002.94,0004.21,0002.73
2023-01-19 16:39:00,,0821.4,5.00,0.00,23.0,21.7,00.0,31.7,24.8,06.9,0000.0,0002.96,0004.28,0002.71
2023-01-19 16:40:00,,0821.4,5.00,0.00,23.0,21.7,00.0,31.7,24.8,06.9,0000.0,0002.92,0004.23,0002.67
2023-01-19 16:41:00,,0821.4,5.00,0.00,23.0,21.7,00.0,31.7,24.8,06.8,0000.0,0002.91,0004.64,0002.65
2023-01-19 16:42:00,,0821.3,5.00,0.00,23.0,21.8,00.0,31.7,24.9,06.8,0000.0,0002.90,0005.23,0002.63
2023-01-19 16:43:00,,0821.4,5.00,0.00,23.0,21.8,00.0,31.7,24.9,06.7,0000.0,0002.89,0005.20,0002.62
2023-01-19 16:44:00,,0821.4,5.01,0.00,23.0,21.8,00.0,31.8,24.9,06.8,0000.0,0002.89,0005.04,0002.63
2023-01-19 16:45:00,,0821.4,4.99,0.00,23.0,21.8,00.0,31.8,24.9,06.8,0000.0,0002.88,0004.63,0002.64
2023-01-19 16:46:00,,0821.4,5.00,0.00,23.1,21.8,00.0,31.8,24.9,06.9,0000.0,0002.87,0004.59,0002.65
2023-01-19 16:47:00,,0821.4,5.02,0.00,23.1,21.8,00.0,31.8,24.9,07.1,0000.0,0002.90,0004.63,0002.66
2023-01-19 16:48:00,,0821.4,4.99,0.00,23.1,21.8,00.0,31.8,24.9,07.1,0000.0,0002.90,0004.61,0002.66
2023-01-19 16:49:00,,0821.4,5.00,0.00,23.1,21.9,00.0,31.8,24.9,07.1,0000.0,0002.89,0004.60,0002.65
2023-01-19 16:50:00,,0821.4,4.98,0.00,23.1,21.9,00.0,31.8,24.9,07.1,0000.0,0002.86,0004.55,0002.65
2023-01-19 16:51:00,,0821.4,5.01,0.00,23.1,21.9,00.0,31.8,24.9,07.2,0000.0,0002.84,0004.51,0002.64
2023-01-19 16:52:00,,0821.4,4.99,0.00,23.1,21.9,00.0,31.8,24.9,07.2,0000.0,0002.84,0004.34,0002.64
2023-01-19 16:53:00,,0821.4,4.99,0.00,23.1,21.9,00.0,31.8,24.9,07.3,0000.0,0002.83,0003.54,0002.64
2023-01-19 16:54:00,,0821.4,5.00,0.00,23.1,21.9,00.0,31.8,24.9,07.2,0000.0,0002.81,0003.50,0002.64
2023-01-19 16:55:00,,0821.4,5.00,0.00,23.1,21.9,00.0,31.9,25.0,07.2,0000.0,0002.81,0003.54,0002.62
2023-01-19 16:56:00,,0821.4,5.01,0.00,23.1,21.9,00.0,31.9,25.0,07.3,0000.0,0002.81,0003.73,0002.60
2023-01-19 16:57:00,,0821.4,5.00,0.00,23.2,21.9,00.0,31.9,25.0,07.2,0000.0,0002.80,0003.81,0002.58
2023-01-19 16:58:00,,0821.4,5.02,0.00,23.2,21.9,00.0,31.9,25.0,07.3,0000.0,0002.79,0003.95,0002.55
2023-01-19 16:59:00,,0821.5,5.00,0.00,23.2,21.9,00.0,31.9,25.0,07.2,0000.0,0002.77,0004.04,0002.51
